ROMMA est une association bénévole à but non lucratif. Votre soutien est indispensable : ADHERER à ROMMA ou FAIRE un DON

Chambon - (38, Isère)

Oisans (2460 m)   Longitude: 06° 10' 42" E   Latitude: 45° 01' 32" N Station partenaire n°803
 

Détail journalier du     <<     >>

Température Humidité Vent Dir Rafale Dir. rafale Neige 1 Neige 2
Heure (°C) (%) (km/h) (km/h) (cm) (cm)
01:00 -3.0748SE38SE167202
02:00 -3.3807ESE33ESE167202
03:00 -3.7857SSE28SSE167202
04:00 -3.6848S30SSO167202
05:00 -3.58312SSO32SSO167204
06:00 -4.59214SSO39SSO168206
07:00 -3.88021SSO44SSO168207
08:00 -3.25631SSO60SSO167210
09:00 -2.85229SSO55SSO167210
10:00 -3.06128SSO50SSO167210
11:00 -2.66525S49SSO167209
12:00 -2.16824S52S167208
13:00 -2.57718SSE52SSE167209
14:00 -3.09017SSE57S167211
15:00 -3.69519S51S168212
16:00 -3.49322S57S172215
17:00 -3.89715S54S172216
18:00 -3.79417S74SSO171223
19:00 -4.09712S57SSO180227
20:00 -4.19813S35S184231
21:00 -4.39816S46S186232
22:00 -4.39818S65S186231
23:00 -4.59810S50S193232
minuit -4.6985NNE24NNE195235

Graphique du 03-04-2019

 

Serveur OMMA